Home   Weather   Alice Springs   Past weeks

Flag for Australia Past Weather in Alice Springs, Northern Territory, Australia — Yesterday and Last 2 Weeks

Now
90 °F

Sunny.


Feels Like: 86 °F
Forecast: 68 / 89 °F
Wind: 10 mph from Southeast

Location: Alice Springs Aerodrome

Current Time: Feb 23, 2017 at 12:32:59 pm

Latest Report: Feb 23, 2017 at 11:30 am


Visibility: 10 mi

Pressure: 30.07 "Hg (28.18 "Hg at 581m altitude)

Humidity: 24%

Dew Point: 48 °F

Location of Alice SpringsLocation

Past Weather in Alice Springs — Graph

°F

Alice Springs Temperature Yesterday

Maximum temperature yesterday: 102 °F (at 3:30 pm)
Minimum temperature yesterday: 59 °F (at 4:30 am)
Average temperature yesterday: 81 °F

High & Low Weather Summary for the Past Weeks

 TemperatureHumidityPressure
High106 °F (Feb 11, 4:30 pm)100% (Feb 20, 8:30 am)30.09 "Hg (Feb 20, 8:30 am)
Low52 °F (Feb 20, 6:00 am)3% (Feb 22, 3:30 pm)29.71 "Hg (Feb 8, 4:30 pm)
Average83 °F31%29.89 "Hg
* Reported Feb 8 10:30 am — Feb 23 11:00 am, Alice Springs, Weather by CustomWeather, © 2017

Note: Actual official high and low records may vary slightly from our data, if they occured in-between our weather recording intervals... More about our weather records

Advertising

Alice Springs Weather History for the Previous 24 Hours

Scroll right to see more
 ConditionsComfort  
Time TempWeatherWind HumidityBarometerVisibility
11:00 am
Thu, Feb 23
88 °FSunny.9 mph25%30.07 "Hg10 mi
10:30 am86 °FPassing clouds.9 mph27%30.07 "HgN/A
10:00 am84 °FSunny.10 mph25%30.07 "Hg10 mi
9:30 am84 °FSunny.9 mph25%30.09 "HgN/A
9:00 am82 °FSunny.12 mph26%30.09 "HgN/A
8:30 am81 °FPleasantly warm.8 mph26%30.07 "HgN/A
8:00 am77 °FPleasantly warm.2 mph30%30.07 "HgN/A
7:30 am72 °FSunny.6 mph27%30.07 "HgN/A
7:00 am68 °FSunny.7 mph28%30.04 "HgN/A
6:30 am63 °FClear.7 mph27%30.04 "HgN/A
6:00 am63 °FClear.7 mph25%30.01 "HgN/A
5:30 am63 °FClear.7 mph27%30.01 "HgN/A
5:00 am64 °FClear.3 mph24%30.01 "HgN/A
4:30 am64 °FClear.3 mph26%29.98 "HgN/A
4:00 am68 °FClear.2 mph24%29.98 "HgN/A
3:30 am70 °FClear.6 mph18%29.95 "HgN/A
3:00 am72 °FClear.8 mph16%29.95 "HgN/A
2:44 am72 °FClear.18 mph14%29.95 "HgN/A
2:30 am64 °FClear.6 mph26%29.95 "HgN/A
2:00 am66 °FClear.5 mph28%29.95 "HgN/A
1:30 am68 °FClear.No wind21%29.95 "HgN/A
1:00 am68 °FClear.No wind23%29.95 "HgN/A
12:30 am68 °FClear.No wind28%29.95 "HgN/A
12:00 am70 °FClear.No wind21%29.98 "HgN/A
11:30 pm
Wed, Feb 22
73 °FClear.3 mph16%29.98 "HgN/A
11:00 pm73 °FClear.5 mph17%29.98 "HgN/A
10:30 pm75 °FClear.6 mph24%29.98 "HgN/A
10:00 pm79 °FClear.6 mph16%29.95 "HgN/A
9:30 pm81 °FClear.6 mph13%29.95 "HgN/A
9:00 pm84 °FClear.8 mph11%29.95 "HgN/A
8:30 pm86 °FClear.7 mph11%29.92 "HgN/A
8:00 pm84 °FClear.8 mph13%29.92 "HgN/A
7:30 pm90 °FSunny.7 mph10%29.89 "HgN/A
7:00 pm93 °FSunny.13 mph8%29.89 "HgN/A
6:30 pm97 °FSunny.13 mph6%29.86 "HgN/A
6:00 pm99 °FSunny.12 mph6%29.86 "HgN/A
5:30 pm99 °FSunny.9 mph5%29.86 "HgN/A
5:00 pm100 °FSunny.13 mph4%29.86 "HgN/A
4:30 pm100 °FSunny.13 mph5%29.86 "HgN/A
4:00 pm100 °FSunny.12 mph5%29.86 "HgN/A
3:30 pm102 °FSunny.16 mph3%29.86 "HgN/A
3:00 pm100 °FSunny.9 mph7%29.86 "HgN/A
2:30 pm100 °FSunny.10 mph5%29.89 "HgN/A
2:00 pm99 °FSunny.10 mph4%29.89 "Hg10 mi
1:30 pm99 °FPassing clouds.9 mph8%29.89 "HgN/A
1:00 pm97 °FPassing clouds.8 mph6%29.92 "HgN/A
12:30 pm97 °FSunny.7 mph7%29.92 "Hg10 mi
12:00 pm97 °FPassing clouds.7 mph6%29.95 "HgN/A
Weather by CustomWeather, © 2017

See weather overviewHow to use our weather pages